Temp
-9 -9 -9 -9 -9 -8 -8 -8 -7 -7 -7 -8 -8 -8 -8 -8 -9 -9 -7 -7 -7 -6 -4 -4 -3 -3 -3 -1 -1 -2 -0 -0 0 -0 0 0 1 1 0 0 0 -1 -3 -3 -4 -4 -0 4 3 3 3 3 4 3
-9 -10 -9 -9 -9 -8 -8 -8 -8 -8 -8 -8 -8 -8 -8 -8 -8 -9 -7 -7 -7 -6 -4 -4 -3 -2 -3 -0 -0 -1 -0 -0 0 -0 0 0 1 1 1 1 0 -1 1 1 1 3 4 4 3 3 3 3 3 3
-9 -9 -9 -9 -9 -8 -8 -8 -8 -8 -7 -8 -8 -8 -8 -8 -8 -8 -8 -7 -7 -6 -4 -3 -2 -2 -2 -2 -1 -1 -1 0 1 1 1 1 1 1 2 2 2 1 2 1 2 3 3 3 3 3 3 3 2 2
-9 -9 -9 -9 -8 -8 -8 -8 -7 -7 -7 -8 -8 -8 -8 -9 -9 -8 -7 -6 -7 -7 -5 -3 -2 -3 -2 -3 -2 -2 -0 0 1 1 1 1 1 2 2 2 2 2 2 3 3 3 3 3 4 3 3 3 3 2
-9 -9 -8 -8 -8 -9 -8 -8 -7 -7 -7 -7 -8 -8 -8 -9 -9 -9 -9 -7 -7 -6 -5 -3 -2 -2 -2 -3 -2 -3 -2 -2 1 1 0 1 1 1 2 2 2 3 4 4 4 3 3 3 3 2 3 3 2 2
-8 -7 -8 -8 -8 -8 -9 -8 -7 -7 -7 -7 -8 -8 -9 -9 -10 -10 -10 -8 -7 -6 -4 -3 -2 -2 -2 -3 -2 -3 -2 -2 -0 0 -0 0 1 1 1 1 3 3 3 3 3 2 2 3 2 3 3 3 2 2
-8 -7 -8 -8 -8 -8 -8 -8 -8 -7 -7 -7 -8 -8 -9 -9 -10 -9 -8 -5 -6 -8 -8 -7 -3 -3 -3 -3 -4 -3 -3 -1 -1 -2 -1 0 0 0 0 2 4 4 3 3 3 2 2 3 3 3 3 2 2 1
-8 -7 -7 -6 -7 -8 -8 -8 -9 -8 -9 -8 -8 -9 -10 -10 -9 -10 -10 -8 -8 -8 -7 -6 -4 -2 -3 -3 -4 -4 -3 -3 -3 -1 -1 -1 -0 -0 1 4 4 3 3 3 3 3 3 2 2 3 2 2 2 2
-8 -8 -8 -7 -8 -8 -8 -9 -9 -9 -10 -9 -10 -10 -10 -10 -9 -9 -9 -7 -5 -7 -7 -5 -4 -4 -4 -4 -4 -3 -3 -3 -2 -2 -1 -1 -1 -0 3 3 4 4 4 3 3 3 3 3 3 2 2 2 2 2
-8 -8 -8 -8 -8 -8 -8 -8 -9 -9 -9 -9 -9 -9 -10 -10 -10 -9 -7 -8 -6 -5 -6 -3 -3 -2 -3 -4 -4 -4 -4 -3 -2 -2 -1 -1 0 2 3 4 4 4 4 4 3 3 3 4 4 3 3 2 1 1
-9 -8 -8 -8 -8 -9 -9 -9 -9 -9 -9 -9 -9 -9 -9 -10 -9 -9 -8 -6 -5 -4 -4 -3 -1 1 -2 -3 -4 -4 -3 -3 -2 -1 -1 -1 2 5 4 4 4 4 4 4 3 3 3 3 3 3 2 2 1 1
-8 -8 -8 -8 -8 -8 -9 -9 -9 -9 -9 -9 -9 -10 -9 -9 -7 -7 -5 -4 -4 -3 -2 -3 -3 -1 -3 -4 -3 -2 -2 -2 -0 -0 -1 -0 4 4 5 5 5 5 5 5 4 3 3 3 2 2 2 1 1 1
-9 -8 -8 -8 -8 -8 -9 -9 -9 -9 -10 -9 -9 -8 -8 -7 -5 -5 -4 -4 -2 -3 -2 -2 -4 -3 -4 -4 -4 -2 -1 -1 -1 -1 0 3 3 5 5 5 6 5 5 5 4 4 2 2 2 2 2 2 2 2
-8 -9 -9 -9 -9 -9 -9 -9 -9 -9 -9 -8 -6 -7 -6 -4 -3 -2 -1 1 0 0 -0 -1 -2 -3 -3 -4 -3 -1 -1 -1 -1 -1 3 4 5 5 5 5 6 5 5 5 4 3 2 2 2 2 2 2 2 1
-9 -9 -9 -9 -9 -9 -9 -8 -8 -8 -6 -6 -5 -4 -4 -3 -2 -2 -0 0 -1 0 1 -2 -2 -2 -3 -3 -1 -1 -1 -1 0 3 4 5 5 5 5 5 5 5 5 5 4 4 3 2 2 2 2 2 1 1
-9 -9 -9 -9 -9 -9 -8 -9 -8 -7 -6 -5 -4 -3 -3 -2 -2 -1 -1 1 1 0 -2 -3 -4 -4 -3 -1 -0 1 1 2 3 5 5 5 5 5 5 5 5 4 4 4 4 4 3 2 1 1 1 1 1 1
-9 -9 -9 -9 -9 -8 -9 -8 -8 -6 -5 -4 -3 -3 -3 -2 -0 1 1 2 1 -0 -3 -3 -3 -3 -1 -1 -0 1 2 4 4 5 5 5 5 5 5 4 4 4 4 3 3 3 3 2 2 1 1 1 1 0
-8 -9 -9 -8 -8 -10 -8 -7 -6 -6 -6 -4 -2 -2 -1 -1 -0 0 1 0 -0 0 -0 -1 -1 -1 -0 -0 0 2 3 4 5 4 4 5 5 5 4 4 4 4 3 3 3 3 2 2 2 1 1 1 0 -0
-7 -8 -9 -9 -8 -9 -9 -7 -6 -5 -4 -4 -2 -2 -1 -2 -1 0 1 1 -0 -0 -1 -0 0 1 1 2 3 3 3 4 5 5 4 4 4 4 3 3 3 3 3 3 2 2 2 2 2 1 1 0 -0 -1
-8 -8 -8 -7 -8 -8 -6 -6 -5 -5 -4 -4 -3 -2 -2 -1 -1 1 1 -0 -1 -1 -1 -1 1 2 3 3 3 3 3 3 3 4 4 4 4 4 3 3 2 2 2 2 2 2 2 1 1 1 0 -0 -0 -1
-8 -8 -8 -8 -8 -7 -6 -6 -4 -5 -4 -4 -4 -3 -2 -2 -1 -1 -0 -0 -1 -1 -0 -0 1 2 3 2 3 3 3 3 3 3 3 3 3 3 2 2 2 2 2 2 2 2 1 1 1 0 -0 -1 -1 -1
-7 -8 -8 -8 -7 -6 -5 -4 -4 -4 -4 -4 -4 -3 -3 -3 -2 -1 -1 -2 -2 -3 -2 -0 1 2 2 2 3 3 2 2 2 3 3 3 2 2 2 2 2 2 2 2 2 1 1 1 0 -0 -1 -1 -1 -2
-7 -7 -6 -7 -6 -5 -6 -4 -4 -4 -5 -5 -4 -5 -5 -4 -3 -2 -3 -3 -3 -3 -2 -0 1 1 1 2 2 2 2 2 2 2 2 2 2 2 2 2 2 2 2 2 1 1 1 0 -0 -1 -1 -1 -2 -2
-7 -7 -7 -5 -5 -6 -5 -5 -4 -4 -5 -5 -5 -5 -5 -5 -3 -3 -4 -3 -3 -3 -2 -1 -1 -1 0 1 1 1 1 1 1 1 1 1 1 1 2 2 1 1 1 1 1 1 1 0 -0 -1 -2 -2 -3 -3
-5 -5 -6 -6 -5 -5 -5 -5 -4 -3 -5 -5 -5 -5 -5 -5 -5 -5 -5 -4 -3 -3 -2 -2 -1 -1 -0 -0 0 0 0 0 0 0 1 1 1 1 1 1 1 1 1 0 -0 -0 -0 -1 -1 -2 -2 -3 -3 -4
-6 -6 -5 -5 -4 -5 -4 -4 -3 -3 -3 -4 -4 -4 -5 -5 -5 -4 -3 -2 -2 -3 -2 -2 -1 -1 -1 -1 -1 -1 -1 -1 -1 -1 -0 -0 0 0 0 1 1 0 -0 -0 -0 -1 -1 -1 -2 -2 -3 -3 -4 -4
-7 -6 -5 -5 -5 -4 -4 -4 -4 -4 -4 -4 -3 -3 -4 -4 -4 -3 -2 -3 -3 -3 -2 -2 -2 -2 -2 -2 -2 -2 -2 -1 -1 -1 -1 -0 -0 -0 -0 -0 -1 -1 -1 -1 -1 -1 -2 -2 -3 -3 -3 -4 -4 -5
-6 -7 -5 -4 -4 -4 -4 -4 -5 -5 -4 -3 -4 -4 -3 -3 -3 -2 -2 -2 -2 -2 -2 -2 -2 -2 -2 -2 -2 -2 -2 -1 -1 -1 -1 -1 -1 -1 -1 -2 -2 -2 -2 -2 -2 -2 -2 -3 -3 -4 -4 -4 -5 -5
-6 -6 -6 -6 -5 -5 -4 -4 -4 -4 -4 -3 -3 -3 -4 -4 -3 -2 -2 -2 -1 -2 -2 -2 -2 -2 -2 -2 -2 -2 -2 -2 -2 -2 -2 -2 -2 -2 -3 -3 -3 -3 -2 -2 -2 -2 -2 -3 -3 -4 -4 -4 -4 -5
-8 -7 -7 -7 -6 -6 -5 -5 -5 -4 -4 -4 -4 -4 -4 -4 -4 -3 -3 -3 -3 -3 -3 -3 -3 -3 -3 -2 -3 -3 -3 -3 -3 -3 -3 -3 -3 -4 -3 -3 -2 -2 -2 -2 -2 -3 -3 -3 -4 -4 -4 -5 -5 -5
-9 -9 -9 -8 -8 -8 -7 -7 -7 -6 -5 -5 -5 -5 -5 -5 -5 -5 -4 -4 -4 -4 -4 -4 -4 -4 -4 -4 -4 -4 -4 -4 -3 -3 -3 -3 -3 -3 -3 -3 -3 -3 -3 -3 -3 -4 -4 -4 -5 -5 -5 -5 -6 -6
-11 -10 -10 -10 -10 -10 -9 -9 -8 -8 -7 -7 -6 -6 -6 -6 -7 -6 -6 -6 -6 -6 -6 -6 -5 -5 -5 -5 -5 -4 -4 -4 -4 -4 -4 -4 -4 -4 -4 -4 -4 -5 -4 -4 -4 -5 -5 -5 -5 -6 -6 -6 -6 -6
-12 -12 -11 -11 -11 -11 -10 -10 -10 -10 -9 -9 -9 -8 -8 -8 -8 -8 -8 -8 -7 -7 -7 -7 -7 -7 -6 -6 -6 -6 -6 -6 -5 -5 -5 -5 -5 -5 -5 -5 -5 -5 -5 -5 -5 -5 -6 -6 -6 -7 -7 -7 -7 -7
Height
2841 2844 2849 2854 2860 2866 2873 2880 2886 2893 2901 2909 2919 2929 2940 2951 2962 2970 2982 2992 2999 3004 3016 3025 3035 3040 3046 3059 3061 3076 3085 3086 3092 3099 3103 3105 3108 3110 3112 3112 3112 3114 3119 3120 3126 3125 3117 3115 3118 3121 3123 3123 3124 3125
2829 2833 2837 2842 2848 2855 2863 2871 2878 2886 2895 2903 2913 2923 2934 2946 2957 2966 2978 2987 2993 3001 3013 3017 3025 3032 3046 3053 3066 3068 3076 3079 3088 3095 3099 3102 3104 3105 3106 3107 3108 3112 3110 3110 3113 3110 3111 3112 3114 3116 3119 3120 3121 3123
2814 2817 2821 2827 2833 2841 2849 2859 2869 2878 2888 2897 2907 2917 2927 2939 2951 2962 2973 2983 2990 2998 3008 3011 3018 3030 3038 3049 3063 3067 3075 3080 3084 3090 3095 3097 3099 3100 3100 3101 3104 3104 3104 3105 3106 3107 3109 3110 3111 3113 3116 3117 3118 3120
2798 2800 2803 2808 2814 2823 2833 2844 2856 2868 2879 2890 2900 2910 2923 2937 2950 2959 2967 2979 2989 2997 3003 3009 3016 3021 3035 3043 3054 3063 3072 3077 3084 3089 3090 3093 3095 3096 3096 3099 3099 3099 3100 3101 3100 3102 3104 3105 3107 3110 3112 3113 3115 3116
2780 2778 2780 2784 2790 2800 2812 2828 2842 2857 2870 2883 2894 2906 2920 2935 2948 2958 2965 2975 2986 2999 3001 3011 3016 3023 3031 3039 3045 3058 3066 3075 3080 3084 3086 3090 3090 3093 3092 3093 3089 3092 3094 3095 3096 3099 3099 3102 3103 3106 3107 3110 3111 3112
2758 2756 2758 2762 2769 2780 2793 2808 2826 2844 2861 2876 2890 2905 2919 2932 2944 2952 2962 2970 2982 2998 2997 3006 3007 3014 3025 3034 3043 3058 3063 3072 3076 3078 3084 3084 3086 3089 3087 3082 3084 3088 3090 3091 3093 3094 3096 3096 3098 3101 3103 3106 3107 3108
2738 2735 2735 2740 2748 2762 2778 2795 2812 2833 2852 2871 2890 2902 2913 2924 2932 2938 2948 2960 2973 2987 2994 2999 2997 3005 3019 3029 3039 3047 3058 3065 3069 3074 3076 3077 3080 3081 3078 3073 3079 3084 3086 3086 3086 3087 3089 3091 3095 3097 3100 3101 3102 3103
2724 2719 2716 2716 2727 2746 2767 2786 2805 2827 2849 2869 2885 2899 2912 2928 2939 2940 2948 2962 2972 2982 2988 2992 2986 2999 3010 3020 3032 3043 3051 3056 3063 3066 3068 3071 3073 3073 3067 3066 3074 3078 3078 3079 3080 3082 3086 3088 3090 3093 3094 3096 3098 3099
2717 2712 2710 2707 2722 2743 2763 2784 2806 2829 2848 2866 2885 2903 2919 2924 2925 2931 2955 2967 2971 2982 2982 2984 2982 2991 3005 3016 3027 3038 3046 3053 3057 3058 3062 3064 3061 3057 3057 3065 3070 3071 3072 3073 3074 3076 3079 3081 3085 3088 3090 3092 3094 3095
2722 2718 2718 2724 2735 2750 2769 2790 2810 2829 2848 2868 2886 2900 2907 2910 2922 2940 2956 2955 2963 2966 2977 2972 2977 2981 2998 3011 3022 3035 3040 3049 3052 3054 3056 3052 3045 3050 3055 3061 3065 3066 3067 3066 3068 3070 3073 3075 3079 3082 3085 3087 3089 3090
2733 2731 2735 2741 2750 2764 2780 2796 2813 2832 2849 2863 2875 2889 2896 2912 2932 2942 2945 2944 2947 2953 2956 2963 2971 2974 2994 3003 3014 3028 3036 3043 3046 3046 3047 3041 3033 3040 3052 3055 3058 3059 3059 3060 3062 3065 3067 3071 3074 3077 3079 3082 3084 3085
2744 2748 2752 2758 2767 2779 2792 2805 2819 2832 2843 2856 2870 2885 2896 2914 2924 2930 2927 2929 2931 2935 2942 2954 2969 2981 2994 3009 3021 3028 3033 3038 3037 3037 3039 3029 3028 3040 3044 3047 3050 3051 3052 3053 3056 3058 3062 3064 3068 3071 3074 3076 3078 3080
2753 2758 2765 2772 2781 2791 2802 2816 2828 2838 2854 2869 2884 2895 2906 2911 2912 2908 2906 2913 2918 2923 2936 2950 2967 2981 2994 3005 3014 3022 3025 3028 3029 3029 3024 3019 3030 3035 3038 3040 3043 3045 3046 3048 3049 3050 3053 3057 3061 3065 3069 3071 3073 3075
2765 2769 2776 2785 2793 2804 2816 2826 2838 2852 2870 2884 2886 2895 2902 2901 2900 2898 2901 2904 2912 2923 2934 2948 2962 2979 2991 3002 3010 3016 3018 3021 3020 3017 3014 3020 3026 3030 3034 3036 3037 3039 3041 3043 3044 3044 3046 3051 3056 3060 3063 3066 3068 3070
2775 2781 2788 2798 2806 2817 2830 2843 2854 2861 2864 2867 2876 2888 2885 2885 2892 2896 2904 2911 2919 2927 2934 2952 2968 2979 2991 3001 3004 3008 3010 3007 3004 3006 3012 3018 3022 3026 3029 3031 3033 3035 3036 3038 3040 3041 3043 3048 3052 3056 3059 3061 3063 3064
2783 2791 2801 2809 2819 2831 2841 2849 2855 2859 2868 2875 2874 2876 2878 2883 2887 2897 2906 2912 2921 2930 2944 2955 2966 2980 2988 2992 2994 2994 2993 2993 2999 3004 3011 3015 3019 3022 3026 3028 3029 3031 3032 3034 3036 3038 3041 3045 3049 3051 3053 3055 3057 3058
2787 2793 2805 2817 2829 2840 2846 2855 2857 2865 2870 2878 2882 2883 2885 2889 2894 2901 2908 2916 2926 2935 2946 2956 2965 2973 2978 2981 2983 2984 2987 2994 2998 3003 3008 3012 3016 3020 3022 3024 3026 3028 3030 3031 3034 3036 3039 3041 3044 3046 3048 3051 3052 3054
2795 2802 2814 2824 2832 2841 2849 2858 2865 2871 2876 2878 2884 2889 2892 2896 2901 2906 2914 2921 2931 2941 2949 2954 2960 2964 2967 2968 2972 2981 2987 2992 2997 3002 3006 3010 3014 3017 3019 3021 3024 3026 3028 3030 3032 3034 3037 3039 3041 3043 3044 3046 3047 3049
2802 2811 2820 2829 2835 2845 2855 2864 2864 2868 2877 2883 2888 2890 2894 2900 2907 2911 2919 2928 2935 2942 2949 2956 2961 2961 2965 2970 2977 2981 2986 2993 2997 3002 3005 3008 3012 3014 3016 3019 3022 3024 3026 3028 3030 3032 3034 3036 3037 3039 3040 3041 3042 3044
2812 2821 2826 2836 2844 2851 2858 2859 2862 2869 2876 2882 2887 2892 2897 2902 2908 2918 2924 2932 2938 2944 2949 2953 2956 2960 2966 2971 2975 2980 2986 2991 2996 2999 3003 3006 3009 3011 3014 3017 3019 3022 3024 3026 3027 3028 3030 3031 3033 3034 3035 3037 3038 3039
2818 2827 2834 2842 2850 2855 2855 2857 2865 2872 2879 2883 2888 2894 2898 2906 2913 2920 2925 2929 2937 2942 2948 2954 2959 2961 2964 2968 2973 2978 2983 2989 2993 2997 3000 3003 3006 3008 3011 3014 3017 3019 3020 3022 3023 3024 3025 3027 3028 3030 3032 3033 3034 3035
2820 2832 2840 2844 2849 2851 2854 2858 2865 2873 2881 2885 2890 2896 2903 2911 2916 2921 2926 2932 2935 2941 2949 2956 2960 2963 2965 2968 2972 2976 2982 2987 2991 2994 2998 3000 3003 3006 3009 3012 3014 3016 3018 3019 3020 3021 3022 3024 3026 3027 3027 3028 3029 3030
2831 2836 2843 2850 2857 2856 2860 2861 2866 2872 2882 2890 2897 2903 2907 2912 2916 2921 2926 2930 2935 2943 2950 2955 2958 2962 2965 2970 2974 2977 2982 2986 2990 2993 2995 2998 3001 3004 3007 3009 3011 3013 3014 3015 3016 3017 3019 3020 3021 3022 3023 3023 3025 3026
2841 2844 2846 2847 2847 2851 2858 2862 2865 2872 2879 2889 2895 2898 2905 2910 2915 2921 2924 2927 2935 2942 2948 2954 2959 2964 2968 2971 2974 2978 2982 2985 2989 2992 2994 2997 3000 3003 3005 3006 3007 3009 3011 3011 3012 3014 3015 3016 3016 3017 3018 3018 3020 3021
2840 2848 2850 2848 2849 2856 2860 2864 2868 2872 2879 2886 2892 2897 2903 2909 2913 2917 2921 2928 2934 2940 2947 2954 2958 2962 2967 2970 2974 2977 2981 2984 2987 2990 2993 2995 2999 3001 3002 3003 3004 3005 3006 3007 3008 3009 3010 3011 3012 3013 3013 3014 3015 3016
2831 2837 2841 2844 2848 2854 2857 2864 2870 2876 2883 2891 2897 2903 2908 2911 2917 2920 2924 2928 2935 2942 2948 2953 2959 2964 2967 2970 2973 2976 2978 2981 2984 2987 2989 2991 2994 2996 2998 2999 2999 3000 3000 3001 3002 3003 3005 3005 3006 3006 3007 3008 3009 3009
2837 2840 2842 2843 2846 2852 2860 2867 2872 2879 2886 2890 2894 2901 2908 2914 2918 2921 2924 2929 2936 2942 2947 2951 2955 2960 2964 2966 2968 2970 2974 2977 2979 2981 2984 2986 2989 2991 2993 2993 2993 2993 2994 2994 2995 2996 2997 2998 2999 3000 3001 3001 3002 3002
2836 2839 2841 2847 2852 2859 2867 2873 2880 2885 2890 2893 2900 2905 2911 2915 2918 2920 2927 2931 2936 2941 2945 2949 2951 2955 2958 2961 2963 2967 2971 2974 2975 2976 2978 2981 2984 2985 2985 2986 2986 2986 2987 2988 2988 2988 2989 2990 2991 2992 2993 2994 2994 2994
2840 2844 2849 2853 2860 2867 2871 2875 2880 2884 2889 2894 2899 2904 2908 2913 2917 2922 2925 2928 2933 2936 2939 2943 2947 2950 2954 2957 2960 2963 2965 2967 2969 2970 2972 2974 2976 2978 2977 2976 2977 2978 2979 2980 2980 2980 2980 2981 2982 2983 2984 2985 2985 2984
2844 2849 2854 2859 2864 2867 2871 2876 2880 2885 2891 2895 2899 2903 2908 2911 2916 2921 2924 2926 2929 2933 2936 2940 2943 2946 2948 2951 2953 2955 2957 2958 2959 2961 2963 2966 2968 2967 2967 2968 2969 2970 2970 2970 2971 2971 2971 2972 2973 2974 2974 2974 2974 2974
2845 2850 2854 2858 2862 2866 2870 2875 2880 2885 2888 2891 2894 2898 2903 2907 2913 2918 2921 2924 2928 2931 2933 2936 2939 2942 2944 2946 2947 2948 2949 2950 2951 2953 2956 2958 2959 2959 2960 2960 2961 2961 2961 2961 2962 2962 2962 2962 2963 2964 2964 2964 2964 2964
2850 2854 2857 2861 2865 2868 2871 2874 2877 2881 2884 2887 2891 2895 2900 2905 2911 2914 2917 2921 2923 2925 2928 2931 2934 2935 2937 2938 2939 2940 2941 2943 2945 2946 2947 2949 2950 2950 2950 2951 2951 2951 2951 2951 2952 2952 2952 2952 2952 2954 2954 2954 2954 2953
2851 2855 2858 2861 2865 2868 2870 2873 2875 2878 2882 2885 2890 2893 2897 2901 2904 2908 2912 2915 2919 2921 2922 2924 2925 2926 2927 2929 2930 2932 2933 2933 2934 2935 2937 2938 2938 2938 2938 2939 2939 2939 2940 2940 2941 2941 2941 2941 2941 2942 2942 2943 2943 2943
Wind_Speed
32 33 35 36 37 39 40 40 41 39 41 45 51 54 58 57 53 51 44 39 38 37 42 42 41 39 50 52 50 44 42 41 37 28 27 16 11 16 14 13 16 27 23 22 21 11 14 14 19 21 10 6 6 5
32 33 36 39 41 43 45 45 46 44 42 45 50 54 57 58 54 50 46 43 40 37 42 34 41 44 48 47 55 40 48 44 37 29 22 19 16 17 21 13 22 18 28 16 18 8 11 10 14 11 14 10 7 6
34 37 39 41 44 47 48 50 51 50 47 46 47 53 58 58 56 53 47 45 42 38 46 30 43 43 45 45 42 54 46 46 46 40 29 23 16 28 21 25 22 25 18 20 20 19 21 15 13 13 12 12 9 8
39 42 44 45 48 50 53 56 57 57 54 49 48 52 56 56 54 52 51 46 41 36 49 36 39 53 48 46 47 56 51 46 41 42 39 29 28 22 21 21 21 24 21 24 26 23 18 20 22 16 14 14 10 9
42 47 49 50 51 53 58 61 60 62 60 55 51 49 53 55 54 52 50 45 39 45 36 37 41 52 54 56 55 55 53 44 43 38 36 34 33 26 27 23 29 26 24 24 19 14 15 17 12 16 17 15 12 11
39 39 41 45 48 52 53 59 66 64 64 60 54 47 53 58 56 56 50 47 45 57 19 25 40 47 53 46 40 46 50 42 41 39 33 38 34 27 16 31 30 23 21 21 19 18 16 16 24 18 16 15 14 11
30 32 37 46 52 57 57 61 62 69 64 60 53 52 59 62 61 63 60 60 66 38 43 19 39 56 52 55 52 49 39 43 40 35 37 36 31 32 34 37 30 22 18 17 18 22 23 23 16 16 17 16 15 13
21 20 23 36 54 57 59 62 64 70 63 56 57 60 58 55 53 55 50 37 56 53 44 14 17 54 58 54 45 42 42 43 39 41 41 34 33 35 37 36 24 21 22 20 21 23 22 19 19 18 19 18 17 14
6 13 13 31 53 57 59 63 66 66 59 61 60 58 52 55 56 55 45 39 20 59 51 19 41 53 59 57 54 47 40 41 38 41 38 36 39 36 40 32 21 20 19 13 18 20 23 24 22 22 21 20 18 16
6 20 26 40 47 59 60 62 64 66 65 63 61 59 56 61 53 42 45 20 39 51 46 31 59 53 66 58 47 42 36 30 31 37 33 41 47 40 36 28 20 14 17 19 16 22 24 23 25 24 21 17 17 18
15 26 41 48 56 61 68 66 69 68 69 68 70 58 48 51 41 45 20 23 24 20 30 44 61 63 65 62 48 30 26 20 19 19 29 26 50 37 30 27 23 26 27 28 26 20 22 23 20 21 20 18 18 20
27 37 47 51 59 60 65 67 70 74 74 72 64 39 41 46 17 33 21 18 17 22 41 57 58 58 59 43 30 27 25 16 9 20 20 32 42 29 17 16 18 22 26 27 28 28 25 25 24 23 21 20 20 19
37 42 49 54 57 58 62 68 72 74 70 58 52 41 47 26 20 15 15 17 29 39 53 60 52 58 51 36 19 15 14 14 13 13 15 41 27 16 15 16 17 20 21 21 21 25 29 26 25 24 23 22 21 20
39 42 47 51 55 62 66 67 66 61 56 53 22 35 23 14 15 29 41 47 43 49 58 59 59 53 52 28 14 14 12 12 13 12 26 21 13 14 15 14 15 16 16 14 13 14 20 24 23 24 23 24 22 22
45 48 54 57 60 63 63 60 58 57 25 20 15 23 10 16 23 34 41 44 41 43 52 61 55 52 50 19 13 19 13 11 15 28 20 15 14 13 14 15 15 13 12 11 10 8 13 20 21 20 21 21 21 22
49 54 54 57 58 59 59 52 61 53 12 32 12 14 12 20 26 33 35 36 38 42 54 56 31 29 35 15 18 14 12 11 17 18 19 15 14 13 12 12 11 9 10 10 7 9 12 16 18 20 20 19 20 20
58 64 60 59 60 58 51 58 60 25 9 12 27 18 21 24 34 40 36 39 48 52 59 43 18 22 23 19 27 22 21 15 12 17 13 14 13 12 12 11 9 7 7 5 6 9 13 16 18 18 16 15 15 15
60 62 61 60 58 60 55 51 29 19 22 10 23 30 22 33 43 45 43 47 42 41 39 37 22 24 17 21 29 30 20 17 14 18 16 13 11 9 8 7 7 8 8 7 6 7 9 10 11 12 12 12 13 13
55 56 54 56 53 55 53 30 11 16 24 20 27 26 28 34 40 41 43 42 45 43 39 31 17 26 23 15 22 29 28 19 19 16 13 12 11 9 8 8 8 8 6 5 5 6 7 9 11 12 13 13 13 13
52 49 49 55 54 51 16 18 26 20 22 28 29 31 32 34 36 36 39 35 42 45 32 32 18 18 25 24 18 20 23 22 20 18 16 15 14 13 12 12 11 9 9 9 9 11 11 12 12 11 11 11 13 13
54 50 56 47 51 30 12 23 27 24 24 23 27 31 32 30 34 33 39 42 48 43 37 28 12 10 17 20 17 18 19 21 21 17 14 15 16 15 14 12 11 11 11 10 9 9 9 10 11 11 12 12 14 16
60 62 58 39 51 4 18 33 29 36 26 26 27 32 34 34 37 37 35 45 47 37 26 15 16 15 17 18 19 22 22 22 20 19 18 16 13 12 12 12 11 10 10 10 11 11 11 11 11 12 13 15 17 17
56 48 39 44 25 9 27 31 38 37 31 34 33 36 37 37 39 38 36 44 43 39 30 23 19 20 21 20 20 22 23 21 20 20 18 16 14 13 11 11 11 11 12 12 13 13 14 14 14 15 16 17 17 18
41 43 44 13 7 10 38 30 37 37 29 37 32 32 38 38 39 40 37 38 44 39 36 27 23 19 20 21 20 21 21 20 19 17 16 14 13 12 12 11 11 11 13 15 15 14 14 15 16 17 18 19 19 19
19 19 12 12 15 26 28 31 38 33 41 40 35 35 34 36 36 37 37 37 36 38 39 31 23 23 23 22 22 21 20 20 20 19 18 16 14 12 12 12 13 15 16 16 15 15 16 16 16 18 19 20 20 21
6 7 7 16 26 29 26 33 30 37 41 34 26 31 32 30 24 13 33 32 32 29 31 28 28 26 23 23 25 25 26 26 23 21 19 17 15 15 16 17 18 19 19 19 20 20 20 20 21 21 21 22 23 24
6 8 20 23 32 34 35 28 32 36 29 19 31 30 24 10 10 9 6 21 17 19 24 22 25 25 23 20 23 24 23 24 23 22 20 20 20 20 20 19 19 22 22 22 21 22 23 23 23 23 23 24 25 26
11 20 23 27 32 32 34 28 28 28 22 18 26 21 17 12 10 16 16 17 18 19 19 20 20 23 25 26 27 26 24 23 22 24 24 23 23 23 21 20 20 22 21 21 22 22 22 24 25 26 27 27 27 28
24 24 23 23 26 27 28 26 19 19 25 21 24 25 16 14 15 11 11 16 20 18 14 15 19 21 22 22 22 23 23 23 24 25 25 24 24 20 21 23 23 25 26 25 25 26 27 29 30 31 31 31 32 32
25 26 28 26 27 26 22 22 20 19 20 23 20 18 18 18 19 18 14 12 14 16 16 16 17 17 19 21 23 24 26 26 26 26 25 24 24 26 28 28 29 30 31 32 31 31 31 32 31 31 31 30 30 30
23 23 23 22 21 21 22 23 23 23 23 22 20 18 18 17 17 19 18 19 18 17 16 17 17 18 17 17 19 20 21 23 24 25 25 25 25 26 27 28 29 30 30 31 32 31 31 31 31 31 31 30 30 30
21 21 21 21 20 19 19 19 20 21 21 22 22 23 23 24 26 26 25 25 24 24 24 23 23 23 24 25 27 28 28 30 31 32 32 32 31 31 32 32 33 33 34 35 35 34 32 32 32 34 35 34 34 34
14 15 15 15 15 15 16 17 17 17 18 19 21 22 23 24 25 26 27 28 28 29 28 28 28 28 29 30 30 31 32 32 33 34 35 37 37 37 37 37 38 39 40 39 37 36 34 34 33 32 32 32 32 32
Wind_Direction
243 241 237 232 227 223 219 217 216 215 212 209 207 205 204 205 208 210 208 208 214 216 199 211 218 216 209 207 196 196 196 202 204 202 213 208 220 217 221 218 210 205 195 210 221 232 256 239 218 216 226 212 222 234
246 244 240 235 232 226 221 216 213 214 210 206 206 205 203 203 206 208 205 209 214 217 198 212 203 212 218 220 204 200 204 201 203 201 212 214 214 216 227 223 226 218 218 223 217 243 240 240 227 215 218 217 232 239
254 251 246 242 235 230 224 217 212 211 210 206 205 205 203 201 202 206 204 204 211 218 198 206 202 198 201 224 224 205 206 214 216 217 214 218 219 232 232 236 240 229 232 232 246 252 244 237 210 199 203 218 229 237
254 254 252 247 239 233 224 217 211 210 209 206 205 204 203 198 198 203 205 205 210 222 206 197 196 202 201 201 213 215 219 215 221 225 225 225 236 244 248 250 255 247 247 251 259 254 249 236 226 219 218 234 229 237
265 262 254 247 238 231 222 215 210 206 208 206 204 202 199 194 194 202 210 205 212 199 215 196 191 200 198 198 206 205 214 223 229 229 229 237 241 248 257 256 249 247 252 253 276 296 260 243 226 219 220 230 229 226
268 254 243 235 227 218 212 208 207 203 204 206 201 197 191 191 192 200 208 210 204 191 142 196 194 196 198 193 197 202 208 219 230 239 236 241 240 243 248 251 253 253 266 271 267 265 247 234 223 219 220 222 223 227
263 252 239 227 222 213 205 197 199 195 196 197 191 190 188 192 195 197 202 207 202 199 218 243 182 184 188 188 194 201 206 219 224 228 235 239 240 242 248 253 251 256 264 270 251 234 230 230 223 220 221 220 226 227
264 240 223 219 206 199 194 187 187 188 185 185 184 186 187 190 198 203 211 206 209 201 213 229 169 185 191 189 183 190 201 210 217 224 231 233 239 243 249 250 250 263 267 254 247 237 229 229 222 214 216 220 228 232
289 184 185 173 179 174 176 177 181 177 178 178 179 177 180 193 199 206 196 196 208 205 205 220 168 168 176 182 187 192 199 207 214 225 231 237 239 234 241 251 261 256 255 262 233 227 225 229 219 219 222 225 231 235
121 145 143 156 160 161 169 170 166 168 172 171 167 172 185 193 199 193 180 208 180 203 205 198 178 173 179 180 182 187 195 202 221 230 235 236 239 238 239 241 243 250 257 261 247 234 229 229 227 222 226 222 228 239
139 136 138 139 147 152 154 161 163 165 165 162 170 175 188 190 183 189 201 198 180 178 177 183 185 190 183 184 176 175 184 198 217 225 222 241 244 238 244 252 244 243 247 249 253 242 234 232 227 221 219 218 233 244
140 146 143 144 146 152 159 158 162 162 166 168 168 166 178 169 182 189 202 187 170 167 167 176 176 183 170 172 171 179 185 188 211 216 218 239 243 249 245 226 230 232 241 250 255 253 243 236 227 222 224 227 235 244
142 146 148 151 154 156 157 160 162 166 161 164 162 149 167 177 195 196 164 171 169 167 171 174 165 165 162 165 173 169 181 202 199 196 223 238 241 236 231 222 220 230 242 251 253 249 241 232 225 222 225 229 235 245
142 147 145 151 153 155 156 162 164 163 154 152 171 160 182 193 180 173 177 171 173 173 172 178 172 168 172 162 162 186 188 185 199 212 228 235 225 212 212 227 230 239 249 254 259 250 235 227 225 222 229 236 244 255
147 151 150 150 152 153 155 156 157 150 160 148 137 174 202 182 177 174 181 178 166 171 176 175 176 178 175 172 171 188 186 207 203 220 221 216 218 219 216 227 238 248 255 257 250 214 196 212 216 222 232 240 248 256
149 150 150 153 154 151 152 156 165 171 127 166 159 195 183 156 162 164 168 170 166 170 169 167 148 162 176 184 196 186 202 200 209 219 219 214 219 214 210 220 231 244 253 249 234 200 195 208 221 229 232 237 243 247
157 156 159 156 153 152 157 163 173 185 149 160 178 173 160 158 163 167 170 180 178 167 166 159 160 173 182 204 200 203 193 190 183 209 202 196 197 203 212 220 228 230 219 197 170 173 185 200 211 220 229 238 242 245
158 158 158 155 156 166 157 163 165 183 199 171 162 168 153 162 164 163 160 148 159 171 180 179 181 184 186 197 199 192 174 186 168 166 168 178 186 193 207 206 203 202 192 194 194 197 201 210 217 223 234 240 244 245
161 161 160 163 169 172 172 178 176 143 166 172 160 156 155 157 163 163 169 171 171 174 176 180 198 207 200 198 205 203 202 190 181 179 191 201 196 193 193 186 184 179 184 194 198 204 214 226 231 238 238 239 238 234
163 164 165 165 164 164 181 162 178 138 147 147 153 154 155 155 155 162 159 173 186 181 181 193 208 212 217 221 223 209 208 201 208 217 211 214 213 207 204 205 208 213 219 235 250 257 258 252 246 241 240 240 240 235
168 170 168 158 175 183 145 137 156 164 150 145 152 154 153 149 151 161 177 182 179 185 192 197 191 191 203 206 198 185 188 203 203 201 208 209 211 210 207 207 208 213 229 236 237 240 236 230 234 238 238 235 232 231
161 165 172 188 187 118 134 147 152 157 156 150 154 159 156 162 165 174 185 186 191 194 184 175 189 194 181 176 165 168 177 188 191 192 194 195 191 189 190 195 202 213 225 236 243 244 244 244 245 245 241 238 238 240
162 159 161 179 192 136 150 154 149 148 146 163 163 162 164 169 177 180 185 195 197 195 183 182 177 177 173 181 181 179 177 178 181 182 182 185 190 194 199 204 215 227 237 242 243 245 249 254 252 246 242 244 245 245
170 181 186 206 178 136 153 156 153 153 157 165 165 168 173 178 182 190 195 201 200 196 193 194 201 209 201 183 180 182 183 185 187 187 188 190 198 205 212 219 228 235 241 249 253 257 261 260 255 250 247 245 245 246
146 141 161 147 147 158 151 147 157 153 167 173 170 172 176 182 188 198 208 209 206 207 203 204 189 183 177 179 182 184 187 194 200 205 208 212 214 221 229 237 245 249 253 255 259 259 259 258 257 254 254 253 253 252
104 106 128 140 159 162 155 160 163 163 165 167 177 178 181 188 187 209 211 203 202 198 204 207 215 216 216 218 219 221 220 218 219 218 218 221 228 240 249 252 256 258 257 257 259 261 264 263 259 255 254 254 253 253
125 143 150 151 154 158 158 164 173 173 168 173 182 183 182 182 199 205 174 200 189 197 203 202 205 204 203 209 206 207 209 211 215 222 231 243 251 255 258 260 262 261 263 264 268 270 268 263 261 261 260 259 259 260
123 136 146 154 162 165 163 159 165 173 174 167 177 170 171 172 145 175 177 170 189 199 202 201 198 198 207 214 218 220 220 225 232 242 248 253 257 262 264 260 258 262 267 268 268 267 267 265 263 263 264 264 263 263
135 139 143 150 165 169 175 173 171 175 183 186 192 192 179 175 167 166 173 189 215 220 209 207 215 224 229 232 235 239 243 246 248 249 253 254 252 250 249 252 257 261 263 265 266 266 265 264 264 265 268 270 272 271
146 149 152 158 162 164 170 180 178 182 182 193 199 194 189 188 186 185 194 205 203 207 209 210 213 215 218 222 227 230 233 236 240 243 246 248 248 248 255 259 261 263 265 266 268 269 271 272 272 272 271 271 271 271
147 152 158 162 161 164 169 172 176 179 186 189 189 188 194 193 194 197 209 216 215 213 211 208 207 208 213 220 229 235 239 242 245 246 247 248 249 252 257 261 262 264 266 267 269 270 271 271 272 272 272 272 270 269
147 154 157 159 160 165 172 178 181 185 190 196 203 206 203 198 195 198 202 207 215 222 228 232 237 240 239 237 236 238 240 244 247 250 253 255 256 257 258 260 263 266 267 269 271 272 272 271 269 267 267 268 270 272
150 157 163 171 176 180 184 188 189 191 197 202 207 208 212 214 212 213 210 215 223 231 242 250 252 250 250 251 252 251 249 249 250 253 256 258 258 259 260 262 263 265 268 270 271 270 269 267 265 265 266 266 266 267